Location: Easter Hill Village
(37.9235°N, 122.3444°W)
Time: 03:50:58
(UTC+00:00)

SL-4 R/B - Pass Details

Date: 16 September 2019
Orbit: 428 x 667 km, 51.6° (Epoch: 16 October)

Event Time Altitude Azimuth Distance (km) Brightness Sun altitude
Exits shadow 12:36:42 - 324° (NW) 2,027 4.7 -15.4°
Reaches altitude 10° 12:38:08 10° 337° (NNW) 1,566 4.3 -15.1°
Maximum altitude 12:40:45 19° 26° (NNE) 1,134 4.1 -14.6°
Drops below altitude 10° 12:43:28 10° 74° (ENE) 1,631 5.9 -14.1°
Sets 12:46:09 0° 92° (E) 2,553 7.0 -13.6°
